Flag for Germany Weather past 2 weeks in Lünen, North Rhine-Westphalia, Germany

Now
61 °F

Partly sunny.


Feels Like: 61 °F
Forecast: 53 / 71 °F
Wind: 5 mph from North

Location: Dortmund / Wickede

Current Time: Sep 2, 2014 at 1:46:59 PM

Latest Report: Sep 2, 2014 at 12:50 PM


Visibility: N/A

Pressure: 30.21 "Hg

Humidity: 77%

Dew point: 54 °F

Location of LünenLocation

Historic Weather in Lünen — Graph

°F

Lünen temperature yesterday

Maximum temperature yesterday: 66 °F (at 4:50 PM)
Minimum temperature yesterday: 52 °F (at 5:20 AM)
Average temperature yesterday: 59 °F

Past Weeks' High & Low Weather Summary

 TemperatureHumidityPressure
High73 °F (Aug 28, 3:20 PM)100% (Aug 27, 6:20 AM)30.21 "Hg (Aug 27, 6:20 AM)
Low45 °F (Aug 27, 5:20 AM)43% (Aug 20, 2:50 PM)29.65 "Hg (Aug 26, 5:20 AM)
Average58 °F75%29.96 "Hg
* Reported Aug 18 12:20 PM — Sep 2 12:20 PM, Lünen, Weather by CustomWeather, © 2014

Note: Actual official high and low records may vary slightly from our data, if they occured in-between our weather recording intervals... More about our weather records

Advertising

Lünen weather history for previous 24 hours

 ConditionsComfort  
Time TempWeatherWind HumidityBarometerVisibility
12:20 PM
Sep 2
61 °FPartly sunny.5 mph77%30.21 "HgN/A
11:50 AM61 °FBroken clouds.5 mph72%30.18 "HgN/A
11:20 AM61 °FBroken clouds.3 mph77%30.18 "HgN/A
10:50 AM59 °FBroken clouds.3 mph82%30.18 "HgN/A
10:20 AM59 °FPartly sunny.3 mph82%30.18 "HgN/A
9:50 AM57 °FScattered clouds.3 mph88%30.18 "HgN/A
9:20 AM55 °FScattered clouds.2 mph88%30.18 "Hg6 mi
8:50 AM55 °FScattered clouds.5 mph88%30.18 "Hg6 mi
8:20 AM52 °FPassing clouds.5 mph94%30.18 "HgN/A
7:50 AM50 °FSunny.6 mph94%30.18 "Hg10 mi
7:20 AM48 °FClear.5 mph94%30.18 "Hg6 mi
6:50 AM48 °FClear.3 mph94%30.15 "Hg5 mi
6:20 AM50 °FClear.3 mph94%30.15 "Hg10 mi
5:50 AM50 °FClear.5 mph88%30.15 "Hg10 mi
5:20 AM50 °FClear.5 mph94%30.15 "Hg10 mi
10:50 PM
Sep 1
57 °FPassing clouds.5 mph82%30.15 "HgN/A
10:20 PM57 °FClear.7 mph82%30.15 "Hg10 mi
9:50 PM55 °FClear.3 mph88%30.15 "Hg10 mi
9:20 PM57 °FClear.3 mph77%30.15 "Hg10 mi
8:50 PM61 °FSunny.3 mph72%30.15 "Hg10 mi
8:20 PM61 °FSunny.2 mph72%30.12 "Hg10 mi
7:50 PM63 °FScattered clouds.2 mph68%30.12 "HgN/A
7:20 PM64 °FSunny.2 mph64%30.12 "Hg10 mi
6:20 PM64 °FPassing clouds.6 mph64%30.12 "HgN/A
5:50 PM64 °FPassing clouds.6 mph64%30.12 "HgN/A
5:20 PM66 °FPassing clouds.8 mph56%30.12 "HgN/A
4:50 PM66 °FPassing clouds.8 mph60%30.12 "HgN/A
4:20 PM64 °FPassing clouds.7 mph64%30.12 "HgN/A
3:50 PM64 °FPassing clouds.10 mph60%30.12 "HgN/A
3:20 PM64 °FPassing clouds.8 mph64%30.15 "HgN/A
2:50 PM63 °FPassing clouds.9 mph73%30.15 "HgN/A
2:20 PM64 °FScattered clouds.7 mph68%30.15 "HgN/A
1:50 PM61 °FScattered clouds.9 mph72%30.15 "HgN/A
1:20 PM63 °FScattered clouds.7 mph73%30.15 "HgN/A
Weather by CustomWeather, © 2014

See weather overviewHow to use our weather pages